| time (UTC) | temp F | wind direction | speed MPH | gust MPH | rain 1hr in | rain 24hr in | rain mn in | humidity % | barometer mb |
| 20260902235056 | 67 | 197 | 9.0 | 23.0 | 0.00 | 0.24 | 0.00 | 78 | 1017.0 |
| 20260902234519 | 67 | 186 | 8.0 | 23.0 | 0.00 | 0.24 | 0.00 | 77 | 1017.0 |
| 20260902234023 | 67 | 138 | 10.0 | 20.0 | 0.00 | 0.24 | 0.00 | 77 | 1017.0 |
| 20260902233529 | 67 | 176 | 12.0 | 20.0 | 0.00 | 0.24 | 0.00 | 77 | 1017.1 |
| 20260902233018 | 67 | 157 | 9.0 | 19.0 | 0.00 | 0.24 | 0.00 | 77 | 1017.2 |
| 20260902232522 | 67 | 184 | 9.0 | 18.0 | 0.00 | 0.24 | 0.00 | 77 | 1017.2 |
| 20260902232031 | 66 | 171 | 10.0 | 18.0 | 0.00 | 0.24 | 0.00 | 78 | 1017.3 |
| 20260902231519 | 66 | 167 | 7.0 | 19.0 | 0.00 | 0.24 | 0.00 | 78 | 1017.2 |
| 20260902231025 | 66 | 145 | 10.0 | 19.0 | 0.00 | 0.24 | 0.00 | 78 | 1017.3 |
| 20260902230526 | 66 | 200 | 10.0 | 18.0 | 0.00 | 0.24 | 0.00 | 78 | 1017.4 |
| 20260902230026 | 66 | 190 | 9.0 | 17.0 | 0.00 | 0.24 | 0.00 | 78 | 1017.4 |
| 20260902225534 | 66 | 175 | 9.0 | 18.0 | 0.00 | 0.24 | 0.00 | 79 | 1017.6 |
| 20260902225023 | 66 | 207 | 8.0 | 21.0 | 0.00 | 0.24 | 0.00 | 79 | 1017.5 |
| 20260902224531 | 66 | 150 | 10.0 | 21.0 | 0.00 | 0.24 | 0.00 | 78 | 1017.5 |
| 20260902224036 | 66 | 155 | 8.0 | 23.0 | 0.00 | 0.24 | 0.00 | 78 | 1017.5 |
| 20260902223524 | 66 | 181 | 10.0 | 23.0 | 0.00 | 0.24 | 0.00 | 78 | 1017.5 |
| 20260902223033 | 66 | 170 | 11.0 | 22.0 | 0.00 | 0.24 | 0.00 | 76 | 1017.6 |
| 20260902222522 | 66 | 211 | 10.0 | 22.0 | 0.00 | 0.24 | 0.00 | 76 | 1017.7 |
| 20260902222028 | 66 | 130 | 6.0 | 14.0 | 0.00 | 0.24 | 0.00 | 76 | 1017.6 |
| 20260902221534 | 66 | 180 | 6.0 | 14.0 | 0.00 | 0.24 | 0.00 | 76 | 1017.6 |
| 20260902221019 | 66 | 147 | 7.0 | 14.0 | 0.00 | 0.24 | 0.00 | 75 | 1017.7 |
| 20260902220525 | 66 | 175 | 6.0 | 14.0 | 0.00 | 0.24 | 0.00 | 75 | 1017.8 |
| 20260902220022 | 66 | 202 | 6.0 | 13.0 | 0.00 | 0.24 | 0.00 | 75 | 1017.9 |
| 20260902215528 | 66 | 165 | 7.0 | 12.0 | 0.00 | 0.24 | 0.05 | 75 | 1017.9 |
| 20260902215023 | 66 | 181 | 7.0 | 17.0 | 0.00 | 0.24 | 0.05 | 75 | 1018.0 |
| 20260902214528 | 66 | 105 | 7.0 | 17.0 | 0.00 | 0.24 | 0.05 | 75 | 1018.0 |
| 20260902214034 | 66 | 214 | 6.0 | 13.0 | 0.00 | 0.24 | 0.05 | 75 | 1017.9 |
| 20260902213535 | 66 | 163 | 5.0 | 17.0 | 0.00 | 0.24 | 0.05 | 75 | 1017.9 |
| 20260902213018 | 66 | 80 | 6.0 | 17.0 | 0.00 | 0.24 | 0.05 | 75 | 1018.0 |
| 20260902212522 | 67 | 184 | 6.0 | 17.0 | 0.00 | 0.24 | 0.05 | 75 | 1018.0 |
| 20260902212054 | 67 | 182 | 9.0 | 17.0 | 0.00 | 0.24 | 0.05 | 75 | 1017.9 |
| 20260902211520 | 67 | 176 | 9.0 | 31.0 | 0.00 | 0.24 | 0.05 | 75 | 1018.1 |
| 20260902211026 | 67 | 139 | 6.0 | 31.0 | 0.00 | 0.24 | 0.05 | 73 | 1018.1 |
| 20260902210529 | 67 | 72 | 10.0 | 18.0 | 0.00 | 0.24 | 0.05 | 73 | 1018.2 |
| 20260902210056 | 66 | 156 | 9.0 | 24.0 | 0.00 | 0.24 | 0.05 | 73 | 1018.2 |
| 20260902205523 | 66 | 214 | 11.0 | 24.0 | 0.00 | 0.24 | 0.05 | 74 | 1018.2 |
| 20260902205056 | 66 | 183 | 8.0 | 14.0 | 0.00 | 0.24 | 0.05 | 75 | 1018.3 |
| 20260902204520 | 67 | 169 | 8.0 | 14.0 | 0.00 | 0.24 | 0.05 | 76 | 1018.3 |
| 20260902204043 | 67 | 195 | 8.0 | 18.0 | 0.00 | 0.24 | 0.05 | 76 | 1018.3 |
| 20260902203549 | 66 | 181 | 9.0 | 25.0 | 0.00 | 0.24 | 0.05 | 76 | 1018.3 |
| 20260902203016 | 66 | 293 | 11.0 | 25.0 | 0.00 | 0.24 | 0.05 | 78 | 1018.3 |
| 20260902202520 | 66 | 158 | 6.0 | 16.0 | 0.00 | 0.24 | 0.05 | 79 | 1018.2 |
| 20260902202029 | 66 | 186 | 8.0 | 16.0 | 0.00 | 0.24 | 0.05 | 79 | 1018.3 |
| 20260902201518 | 67 | 102 | 5.0 | 13.0 | 0.00 | 0.24 | 0.05 | 79 | 1018.3 |
| 20260902201025 | 67 | 154 | 5.0 | 10.0 | 0.00 | 0.24 | 0.05 | 79 | 1018.4 |
| 20260902200526 | 67 | 189 | 2.0 | 10.0 | 0.00 | 0.24 | 0.05 | 79 | 1018.4 |
| 20260902200022 | 67 | 127 | 4.0 | 9.0 | 0.00 | 0.24 | 0.05 | 78 | 1018.4 |
| 20260902195528 | 67 | 132 | 4.0 | 9.0 | 0.00 | 0.24 | 0.05 | 78 | 1018.4 |
| 20260902195033 | 67 | 142 | 3.0 | 11.0 | 0.00 | 0.24 | 0.05 | 78 | 1018.5 |
| 20260902194530 | 67 | 123 | 4.0 | 11.0 | 0.00 | 0.24 | 0.05 | 77 | 1018.6 |
| 20260902194034 | 67 | 146 | 3.0 | 11.0 | 0.00 | 0.24 | 0.05 | 77 | 1018.6 |
| 20260902193520 | 67 | 142 | 5.0 | 14.0 | 0.00 | 0.24 | 0.05 | 77 | 1018.6 |
| 20260902193022 | 67 | 200 | 8.0 | 14.0 | 0.00 | 0.24 | 0.05 | 77 | 1018.6 |
| 20260902192528 | 67 | 138 | 5.0 | 15.0 | 0.00 | 0.24 | 0.05 | 77 | 1018.5 |
| 20260902192031 | 67 | 138 | 6.0 | 15.0 | 0.00 | 0.24 | 0.05 | 76 | 1018.6 |
| 20260902191530 | 68 | 128 | 9.0 | 15.0 | 0.00 | 0.24 | 0.05 | 76 | 1018.7 |
| 20260902190532 | 68 | 169 | 10.0 | 17.0 | 0.00 | 0.24 | 0.05 | 75 | 1018.6 |
| 20260902190029 | 68 | 140 | 9.0 | 18.0 | 0.00 | 0.24 | 0.05 | 74 | 1018.6 |
| 20260902185523 | 67 | 160 | 8.0 | 16.0 | 0.00 | 0.24 | 0.05 | 72 | 1018.6 |
| 20260902185031 | 67 | 143 | 7.0 | 15.0 | 0.00 | 0.24 | 0.05 | 71 | 1018.7 |
| 20260902184520 | 67 | 165 | 8.0 | 14.0 | 0.00 | 0.24 | 0.05 | 71 | 1018.7 |
| 20260902184046 | 67 | 186 | 9.0 | 15.0 | 0.00 | 0.24 | 0.05 | 71 | 1018.8 |
| 20260902183527 | 67 | 126 | 8.0 | 15.0 | 0.00 | 0.24 | 0.05 | 71 | 1018.8 |
| 20260902183037 | 67 | 121 | 8.0 | 18.0 | 0.00 | 0.24 | 0.05 | 73 | 1018.8 |
| 20260902182542 | 67 | 200 | 9.0 | 18.0 | 0.00 | 0.24 | 0.05 | 75 | 1018.8 |
| 20260902182028 | 67 | 198 | 7.0 | 16.0 | 0.00 | 0.24 | 0.05 | 76 | 1018.7 |
| 20260902181517 | 67 | 176 | 7.0 | 15.0 | 0.00 | 0.24 | 0.05 | 76 | 1018.8 |
| 20260902181041 | 67 | 237 | 10.0 | 17.0 | 0.00 | 0.24 | 0.05 | 77 | 1018.7 |
| 20260902180528 | 67 | 244 | 9.0 | 17.0 | 0.00 | 0.24 | 0.05 | 77 | 1018.8 |
| 20260902180027 | 67 | 225 | 8.0 | 20.0 | 0.00 | 0.24 | 0.05 | 78 | 1018.8 |
| 20260902175534 | 67 | 211 | 6.0 | 20.0 | 0.00 | 0.24 | 0.05 | 78 | 1018.8 |
| 20260902175017 | 67 | 198 | 9.0 | 16.0 | 0.00 | 0.24 | 0.05 | 78 | 1018.9 |
| 20260902174523 | 67 | 261 | 9.0 | 16.0 | 0.00 | 0.24 | 0.05 | 78 | 1019.0 |
| 20260902174029 | 67 | 163 | 10.0 | 17.0 | 0.00 | 0.24 | 0.05 | 78 | 1018.9 |
| 20260902173518 | 68 | 180 | 8.0 | 15.0 | 0.00 | 0.24 | 0.05 | 78 | 1018.9 |
| 20260902173022 | 68 | 153 | 7.0 | 14.0 | 0.00 | 0.24 | 0.05 | 78 | 1019.0 |
| 20260902172528 | 68 | 215 | 8.0 | 14.0 | 0.00 | 0.24 | 0.05 | 78 | 1019.0 |
| 20260902172017 | 68 | 209 | 8.0 | 14.0 | 0.00 | 0.24 | 0.05 | 78 | 1019.1 |
| 20260902171527 | 68 | 221 | 6.0 | 14.0 | 0.00 | 0.24 | 0.05 | 77 | 1019.1 |
| 20260902171034 | 68 | 194 | 8.0 | 14.0 | 0.00 | 0.24 | 0.05 | 77 | 1019.0 |
| 20260902170533 | 68 | 192 | 10.0 | 17.0 | 0.00 | 0.24 | 0.05 | 77 | 1019.1 |
| 20260902170033 | 68 | 215 | 6.0 | 18.0 | 0.00 | 0.24 | 0.05 | 77 | 1019.1 |
| 20260902165520 | 68 | 204 | 10.0 | 18.0 | 0.00 | 0.24 | 0.05 | 77 | 1019.0 |
| 20260902165053 | 68 | 229 | 11.0 | 16.0 | 0.00 | 0.24 | 0.05 | 77 | 1019.1 |
| 20260902164538 | 68 | 171 | 7.0 | 17.0 | 0.00 | 0.24 | 0.05 | 76 | 1019.1 |
| 20260902164046 | 68 | 217 | 8.0 | 16.0 | 0.00 | 0.24 | 0.05 | 76 | 1019.1 |
| 20260902163532 | 68 | 206 | 9.0 | 16.0 | 0.00 | 0.24 | 0.05 | 75 | 1019.2 |
| 20260902163039 | 68 | 222 | 8.0 | 16.0 | 0.00 | 0.24 | 0.05 | 75 | 1019.1 |
| 20260902162521 | 68 | 172 | 9.0 | 17.0 | 0.00 | 0.24 | 0.05 | 74 | 1019.2 |
| 20260902162028 | 68 | 200 | 9.0 | 17.0 | 0.00 | 0.24 | 0.05 | 74 | 1019.2 |
| 20260902161533 | 68 | 161 | 10.0 | 17.0 | 0.00 | 0.24 | 0.05 | 73 | 1019.2 |
| 20260902161022 | 68 | 236 | 6.0 | 17.0 | 0.00 | 0.24 | 0.05 | 73 | 1019.2 |
| 20260902160555 | 68 | 185 | 10.0 | 17.0 | 0.00 | 0.24 | 0.05 | 74 | 1019.3 |
| 20260902160031 | 68 | 205 | 8.0 | 19.0 | 0.00 | 0.24 | 0.05 | 75 | 1019.3 |
| 20260902155521 | 69 | 218 | 10.0 | 19.0 | 0.00 | 0.24 | 0.05 | 75 | 1019.3 |
| 20260902155045 | 69 | 146 | 8.0 | 12.0 | 0.00 | 0.24 | 0.05 | 75 | 1019.4 |
| 20260902154551 | 69 | 197 | 7.0 | 16.0 | 0.00 | 0.24 | 0.05 | 74 | 1019.5 |
| 20260902154034 | 69 | 216 | 9.0 | 16.0 | 0.00 | 0.24 | 0.05 | 73 | 1019.5 |
| 20260902153524 | 69 | 195 | 7.0 | 16.0 | 0.00 | 0.24 | 0.05 | 71 | 1019.6 |
| 20260902153022 | 69 | 188 | 9.0 | 16.0 | 0.00 | 0.24 | 0.05 | 70 | 1019.7 |
| 20260902152529 | 69 | 163 | 7.0 | 13.0 | 0.00 | 0.24 | 0.05 | 70 | 1019.6 |
| 20260902152017 | 69 | 223 | 7.0 | 13.0 | 0.00 | 0.24 | 0.05 | 70 | 1019.6 |
| 20260902151521 | 69 | 242 | 6.0 | 16.0 | 0.00 | 0.24 | 0.05 | 71 | 1019.6 |
| 20260902151028 | 69 | 236 | 9.0 | 16.0 | 0.00 | 0.24 | 0.05 | 71 | 1019.7 |
| 20260902150536 | 69 | 160 | 8.0 | 16.0 | 0.00 | 0.24 | 0.05 | 71 | 1019.7 |
| 20260902150019 | 69 | 208 | 7.0 | 14.0 | 0.00 | 0.24 | 0.05 | 72 | 1019.8 |
| 20260902145522 | 69 | 198 | 8.0 | 18.0 | 0.00 | 0.24 | 0.05 | 72 | 1019.8 |
| 20260902145056 | 69 | 248 | 8.0 | 18.0 | 0.00 | 0.24 | 0.05 | 71 | 1019.8 |
| 20260902144524 | 69 | 150 | 8.0 | 14.0 | 0.00 | 0.24 | 0.05 | 72 | 1019.8 |
| 20260902144055 | 69 | 192 | 7.0 | 16.0 | 0.00 | 0.24 | 0.05 | 73 | 1019.8 |
| 20260902143521 | 69 | 288 | 5.0 | 16.0 | 0.00 | 0.24 | 0.05 | 72 | 1019.9 |
| 20260902143022 | 69 | 164 | 8.0 | 13.0 | 0.00 | 0.24 | 0.05 | 72 | 1020.0 |
| 20260902142548 | 69 | 194 | 6.0 | 17.0 | 0.00 | 0.24 | 0.05 | 71 | 1020.0 |
| 20260902142032 | 69 | 164 | 8.0 | 18.0 | 0.00 | 0.24 | 0.05 | 70 | 1020.0 |
| 20260902141521 | 69 | 184 | 6.0 | 14.0 | 0.00 | 0.24 | 0.05 | 71 | 1020.0 |
| 20260902141022 | 70 | 192 | 6.0 | 16.0 | 0.00 | 0.24 | 0.05 | 71 | 1020.0 |
| 20260902140530 | 70 | 173 | 6.0 | 16.0 | 0.00 | 0.24 | 0.05 | 70 | 1020.0 |
| 20260902140031 | 70 | 217 | 7.0 | 14.0 | 0.00 | 0.24 | 0.05 | 70 | 1019.9 |
| 20260902135520 | 70 | 171 | 7.0 | 16.0 | 0.00 | 0.24 | 0.05 | 70 | 1019.9 |
| 20260902135028 | 70 | 182 | 5.0 | 16.0 | 0.00 | 0.24 | 0.05 | 70 | 1019.9 |
| 20260902134533 | 70 | 190 | 8.0 | 14.0 | 0.00 | 0.24 | 0.05 | 71 | 1019.9 |
| 20260902134018 | 70 | 199 | 5.0 | 14.0 | 0.00 | 0.24 | 0.05 | 71 | 1019.9 |
| 20260902133526 | 70 | 236 | 8.0 | 12.0 | 0.00 | 0.24 | 0.05 | 69 | 1019.9 |
| 20260902133033 | 70 | 238 | 7.0 | 12.0 | 0.00 | 0.24 | 0.05 | 69 | 1020.0 |
| 20260902132521 | 70 | 244 | 6.0 | 12.0 | 0.00 | 0.24 | 0.05 | 69 | 1020.0 |
| 20260902132043 | 70 | 238 | 6.0 | 11.0 | 0.00 | 0.24 | 0.05 | 69 | 1020.1 |
| 20260902131531 | 71 | 265 | 7.0 | 13.0 | 0.00 | 0.24 | 0.05 | 68 | 1020.1 |
| 20260902131019 | 71 | 184 | 9.0 | 13.0 | 0.00 | 0.24 | 0.05 | 68 | 1020.0 |
| 20260902130527 | 71 | 212 | 6.0 | 14.0 | 0.00 | 0.24 | 0.05 | 70 | 1020.0 |
| 20260902130023 | 71 | 178 | 9.0 | 14.0 | 0.00 | 0.24 | 0.05 | 70 | 1019.9 |
| 20260902125530 | 71 | 192 | 7.0 | 17.0 | 0.00 | 0.24 | 0.05 | 70 | 1020.0 |
| 20260902125020 | 70 | 236 | 7.0 | 17.0 | 0.00 | 0.24 | 0.05 | 70 | 1020.0 |
| 20260902124527 | 70 | 225 | 8.0 | 15.0 | 0.00 | 0.24 | 0.05 | 70 | 1020.0 |
| 20260902124033 | 70 | 248 | 9.0 | 14.0 | 0.00 | 0.24 | 0.05 | 71 | 1019.9 |
| 20260902123517 | 70 | 178 | 9.0 | 14.0 | 0.00 | 0.24 | 0.05 | 72 | 1019.9 |
| 20260902123043 | 69 | 259 | 8.0 | 14.0 | 0.00 | 0.24 | 0.05 | 72 | 1019.9 |
| 20260902122531 | 69 | 173 | 6.0 | 15.0 | 0.00 | 0.24 | 0.05 | 72 | 1020.0 |
| 20260902122021 | 69 | 188 | 8.0 | 15.0 | 0.00 | 0.24 | 0.05 | 73 | 1019.9 |
| 20260902121527 | 69 | 248 | 7.0 | 15.0 | 0.00 | 0.24 | 0.05 | 74 | 1019.8 |
| 20260902121035 | 69 | 194 | 7.0 | 14.0 | 0.00 | 0.24 | 0.05 | 74 | 1019.9 |
| 20260902120524 | 69 | 209 | 5.0 | 13.0 | 0.00 | 0.24 | 0.05 | 74 | 1019.9 |
| 20260902120024 | 69 | 218 | 6.0 | 11.0 | 0.00 | 0.24 | 0.05 | 73 | 1019.9 |
| 20260902115550 | 69 | 236 | 7.0 | 12.0 | 0.00 | 0.24 | 0.05 | 72 | 1019.9 |
| 20260902115032 | 69 | 189 | 8.0 | 12.0 | 0.00 | 0.24 | 0.05 | 72 | 1019.9 |
| 20260902114521 | 69 | 227 | 7.0 | 11.0 | 0.00 | 0.24 | 0.05 | 73 | 1020.0 |
| 20260902114030 | 69 | 168 | 6.0 | 10.0 | 0.00 | 0.24 | 0.05 | 73 | 1020.1 |
| 20260902113518 | 69 | 234 | 5.0 | 12.0 | 0.00 | 0.24 | 0.05 | 73 | 1020.1 |
| 20260902113027 | 69 | 261 | 4.0 | 14.0 | 0.00 | 0.24 | 0.05 | 73 | 1020.1 |
| 20260902112534 | 69 | 244 | 6.0 | 14.0 | 0.00 | 0.24 | 0.05 | 72 | 1020.0 |
| 20260902112042 | 69 | 269 | 8.0 | 15.0 | 0.00 | 0.24 | 0.05 | 72 | 1020.1 |
| 20260902111528 | 69 | 240 | 7.0 | 15.0 | 0.00 | 0.24 | 0.05 | 72 | 1020.2 |
| 20260902111016 | 69 | 242 | 10.0 | 15.0 | 0.00 | 0.24 | 0.05 | 72 | 1020.2 |
| 20260902110521 | 69 | 217 | 9.0 | 13.0 | 0.00 | 0.24 | 0.05 | 72 | 1020.3 |
| 20260902110023 | 69 | 223 | 9.0 | 14.0 | 0.00 | 0.24 | 0.05 | 74 | 1020.3 |
| 20260902105527 | 68 | 190 | 8.0 | 15.0 | 0.00 | 0.24 | 0.05 | 74 | 1020.2 |
| 20260902105051 | 68 | 254 | 9.0 | 15.0 | 0.00 | 0.24 | 0.05 | 74 | 1020.2 |
| 20260902104519 | 68 | 234 | 9.0 | 15.0 | 0.00 | 0.24 | 0.05 | 79 | 1020.3 |
| 20260902104021 | 67 | 290 | 6.0 | 10.0 | 0.00 | 0.24 | 0.05 | 81 | 1020.3 |
| 20260902103529 | 67 | 209 | 5.0 | 12.0 | 0.00 | 0.24 | 0.05 | 82 | 1020.2 |
| 20260902103017 | 67 | 241 | 7.0 | 12.0 | 0.00 | 0.24 | 0.05 | 83 | 1020.2 |
| 20260902102545 | 67 | 245 | 4.0 | 12.0 | 0.04 | 0.24 | 0.05 | 84 | 1020.2 |
| 20260902102026 | 66 | 259 | 7.0 | 12.0 | 0.24 | 0.24 | 0.05 | 84 | 1020.1 |
| 20260902101555 | 66 | 259 | 5.0 | 12.0 | 0.24 | 0.24 | 0.05 | 85 | 1020.0 |
| 20260902101021 | 66 | 239 | 5.0 | 10.0 | 0.24 | 0.24 | 0.05 | 85 | 1020.1 |
| 20260902100529 | 66 | 230 | 3.0 | 8.0 | 0.24 | 0.24 | 0.05 | 85 | 1020.1 |
| 20260902100045 | 66 | 190 | 2.0 | 4.0 | 0.24 | 0.24 | 0.05 | 85 | 1020.2 |
| 20260902095526 | 66 | 158 | 1.0 | 5.0 | 0.24 | 0.24 | 0.05 | 84 | 1020.2 |
| 20260902095034 | 66 | 208 | 2.0 | 5.0 | 0.24 | 0.24 | 0.05 | 84 | 1020.2 |
| 20260902094522 | 66 | 236 | 1.0 | 7.0 | 0.24 | 0.24 | 0.05 | 83 | 1020.1 |
| 20260902094029 | 66 | 247 | 2.0 | 10.0 | 0.24 | 0.24 | 0.05 | 82 | 1020.1 |
| 20260902093534 | 67 | 226 | 5.0 | 10.0 | 0.24 | 0.24 | 0.05 | 82 | 1020.0 |
| 20260902093021 | 68 | 246 | 6.0 | 10.0 | 0.24 | 0.24 | 0.05 | 81 | 1020.1 |
| 20260902092527 | 69 | 207 | 6.0 | 10.0 | 0.16 | 0.16 | 0.03 | 81 | 1020.1 |
| 20260902092028 | 69 | 202 | 4.0 | 7.0 | 0.00 | 0.00 | 0.00 | 80 | 1019.9 |
| 20260902091529 | 69 | 264 | 3.0 | 7.0 | 0.00 | 0.00 | 0.00 | 80 | 1019.9 |
| 20260902091017 | 69 | 215 | 3.0 | 7.0 | 0.00 | 0.00 | 0.00 | 80 | 1019.9 |
| 20260902090526 | 69 | 171 | 3.0 | 8.0 | 0.00 | 0.00 | 0.00 | 79 | 1020.0 |
| 20260902090027 | 69 | 216 | 3.0 | 10.0 | 0.00 | 0.00 | 0.00 | 79 | 1019.9 |
| 20260902085516 | 68 | 166 | 5.0 | 12.0 | 0.00 | 0.00 | 0.00 | 77 | 1020.0 |
| 20260902085019 | 68 | 194 | 6.0 | 12.0 | 0.00 | 0.00 | 0.00 | 77 | 1020.0 |
| 20260902084523 | 68 | 235 | 4.0 | 11.0 | 0.00 | 0.00 | 0.00 | 77 | 1020.0 |
| 20260902084034 | 68 | 265 | 6.0 | 11.0 | 0.00 | 0.00 | 0.00 | 78 | 1019.9 |
| 20260902083521 | 68 | 249 | 7.0 | 11.0 | 0.00 | 0.00 | 0.00 | 79 | 1019.9 |
| 20260902083027 | 67 | 268 | 6.0 | 13.0 | 0.00 | 0.00 | 0.00 | 79 | 1019.8 |
| 20260902082533 | 67 | 250 | 8.0 | 13.0 | 0.00 | 0.00 | 0.00 | 81 | 1019.7 |
| 20260902082021 | 67 | 247 | 8.0 | 11.0 | 0.00 | 0.00 | 0.00 | 82 | 1019.7 |
| 20260902081555 | 66 | 229 | 4.0 | 9.0 | 0.00 | 0.00 | 0.00 | 84 | 1019.6 |
| 20260902081021 | 66 | 238 | 6.0 | 10.0 | 0.00 | 0.00 | 0.00 | 85 | 1019.6 |
| 20260902080527 | 66 | 268 | 7.0 | 10.0 | 0.00 | 0.00 | 0.00 | 87 | 1019.5 |
| 20260902080026 | 66 | 187 | 3.0 | 7.0 | 0.00 | 0.00 | 0.00 | 89 | 1019.5 |
| 20260902075533 | 66 | 229 | 1.0 | 4.0 | 0.00 | 0.00 | 0.00 | 90 | 1019.5 |
| 20260902075021 | 66 | 134 | 1.0 | 4.0 | 0.00 | 0.00 | 0.00 | 91 | 1019.4 |
| 20260902074548 | 66 | 134 | 1.0 | 4.0 | 0.00 | 0.00 | 0.00 | 91 | 1019.4 |
| 20260902074048 | 65 | 134 | 2.0 | 4.0 | 0.00 | 0.00 | 0.00 | 91 | 1019.3 |
| 20260902073534 | 65 | 107 | 1.0 | 5.0 | 0.00 | 0.00 | 0.00 | 92 | 1019.3 |
| 20260902073020 | 65 | 145 | 1.0 | 5.0 | 0.00 | 0.00 | 0.00 | 92 | 1019.4 |
| 20260902072530 | 64 | 185 | 3.0 | 5.0 | 0.00 | 0.00 | 0.00 | 92 | 1019.3 |
| 20260902072018 | 64 | 164 | 2.0 | 6.0 | 0.00 | 0.00 | 0.00 | 92 | 1019.2 |
| 20260902071542 | 64 | 134 | 2.0 | 6.0 | 0.00 | 0.00 | 0.00 | 93 | 1019.1 |
| 20260902071053 | 64 | 126 | 1.0 | 4.0 | 0.00 | 0.00 | 0.00 | 93 | 1019.1 |
| 20260902070522 | 63 | 123 | 1.0 | 7.0 | 0.00 | 0.00 | 0.00 | 93 | 1019.1 |
| 20260902070026 | 63 | 136 | 2.0 | 7.0 | 0.00 | 0.00 | 0.00 | 93 | 1019.1 |
| 20260902065555 | 63 | 159 | 4.0 | 8.0 | 0.00 | 0.00 | 0.00 | 93 | 1019.1 |
| 20260902065023 | 62 | 127 | 4.0 | 8.0 | 0.00 | 0.00 | 0.00 | 93 | 1019.2 |
| 20260902064532 | 62 | 143 | 2.0 | 7.0 | 0.00 | 0.00 | 0.00 | 93 | 1019.2 |
| 20260902064021 | 62 | 132 | 2.0 | 7.0 | 0.00 | 0.00 | 0.00 | 93 | 1019.2 |
| 20260902063523 | 61 | 113 | 2.0 | 7.0 | 0.00 | 0.00 | 0.00 | 93 | 1019.1 |
| 20260902063031 | 61 | 186 | 3.0 | 7.0 | 0.00 | 0.00 | 0.00 | 93 | 1019.1 |
| 20260902062520 | 61 | 122 | 3.0 | 5.0 | 0.00 | 0.00 | 0.00 | 93 | 1019.0 |
| 20260902062028 | 61 | 123 | 1.0 | 7.0 | 0.00 | 0.00 | 0.00 | 93 | 1019.0 |
| 20260902061537 | 61 | 161 | 2.0 | 7.0 | 0.00 | 0.00 | 0.00 | 93 | 1019.0 |
| 20260902061020 | 61 | 118 | 1.0 | 6.0 | 0.00 | 0.00 | 0.00 | 93 | 1019.0 |
| 20260902060528 | 61 | 130 | 2.0 | 6.0 | 0.00 | 0.00 | 0.00 | 93 | 1019.0 |
| 20260902060029 | 61 | 164 | 2.0 | 6.0 | 0.00 | 0.00 | 0.00 | 92 | 1018.9 |
| 20260902055537 | 61 | 177 | 3.0 | 7.0 | 0.00 | 0.00 | 0.00 | 92 | 1018.9 |
| 20260902055018 | 61 | 168 | 5.0 | 7.0 | 0.00 | 0.00 | 0.00 | 92 | 1018.9 |
| 20260902054547 | 61 | 159 | 3.0 | 8.0 | 0.00 | 0.00 | 0.00 | 92 | 1018.9 |
| 20260902054034 | 60 | 159 | 3.0 | 8.0 | 0.00 | 0.00 | 0.00 | 92 | 1018.9 |
| 20260902053523 | 60 | 158 | 4.0 | 6.0 | 0.00 | 0.00 | 0.00 | 92 | 1019.0 |
| 20260902053044 | 60 | 142 | 2.0 | 4.0 | 0.00 | 0.00 | 0.00 | 92 | 1018.9 |
| 20260902052531 | 60 | 159 | 1.0 | 4.0 | 0.00 | 0.00 | 0.00 | 92 | 1018.8 |
| 20260902052020 | 60 | 166 | 2.0 | 5.0 | 0.00 | 0.00 | 0.00 | 92 | 1018.8 |
| 20260902051528 | 60 | 138 | 2.0 | 4.0 | 0.00 | 0.00 | 0.00 | 92 | 1018.9 |
| 20260902051036 | 60 | 121 | 1.0 | 3.0 | 0.00 | 0.00 | 0.00 | 92 | 1018.8 |
| 20260902050519 | 60 | 151 | 1.0 | 3.0 | 0.00 | 0.00 | 0.00 | 91 | 1018.8 |
| 20260902050023 | 60 | 151 | 1.0 | 5.0 | 0.00 | 0.00 | 0.00 | 91 | 1018.8 |
| 20260902045552 | 60 | 129 | 1.0 | 5.0 | 0.00 | 0.00 | 0.00 | 91 | 1018.8 |
| 20260902045018 | 60 | 162 | 2.0 | 5.0 | 0.00 | 0.00 | 0.00 | 91 | 1018.8 |
| 20260902044529 | 60 | 124 | 2.0 | 5.0 | 0.00 | 0.00 | 0.00 | 91 | 1018.8 |
| 20260902044034 | 60 | 147 | 1.0 | 5.0 | 0.00 | 0.00 | 0.00 | 91 | 1018.7 |
| 20260902043521 | 60 | 136 | 1.0 | 5.0 | 0.00 | 0.00 | 0.00 | 93 | 1018.7 |
| 20260902043049 | 60 | 133 | 1.0 | 5.0 | 0.00 | 0.00 | 0.00 | 91 | 1018.8 |
| 20260902042517 | 61 | 121 | 1.0 | 5.0 | 0.00 | 0.00 | 0.00 | 91 | 1018.8 |
| 20260902042019 | 61 | 131 | 1.0 | 5.0 | 0.00 | 0.00 | 0.00 | 91 | 1018.7 |
| 20260902041528 | 61 | 142 | 2.0 | 6.0 | 0.00 | 0.00 | 0.00 | 90 | 1018.8 |
| 20260902041035 | 61 | 150 | 2.0 | 5.0 | 0.00 | 0.00 | 0.00 | 90 | 1018.8 |
| 20260902040521 | 61 | 131 | 2.0 | 6.0 | 0.00 | 0.00 | 0.00 | 91 | 1018.8 |
| 20260902040023 | 61 | 127 | 4.0 | 6.0 | 0.00 | 0.00 | 0.00 | 91 | 1018.7 |
| 20260902035527 | 61 | 134 | 2.0 | 7.0 | 0.00 | 0.00 | 0.00 | 90 | 1018.7 |
| 20260902035035 | 61 | 153 | 2.0 | 6.0 | 0.00 | 0.00 | 0.00 | 90 | 1018.7 |
| 20260902034525 | 61 | 129 | 2.0 | 8.0 | 0.00 | 0.00 | 0.00 | 90 | 1018.7 |
| 20260902034031 | 61 | 130 | 4.0 | 8.0 | 0.00 | 0.00 | 0.00 | 90 | 1018.8 |
| 20260902033521 | 61 | 129 | 3.0 | 7.0 | 0.00 | 0.00 | 0.00 | 90 | 1018.8 |
| 20260902033046 | 61 | 141 | 3.0 | 7.0 | 0.00 | 0.00 | 0.00 | 90 | 1018.9 |
| 20260902032535 | 61 | 154 | 4.0 | 7.0 | 0.00 | 0.00 | 0.00 | 90 | 1018.9 |
| 20260902032023 | 61 | 124 | 1.0 | 7.0 | 0.00 | 0.00 | 0.00 | 90 | 1018.9 |
| 20260902031531 | 61 | 106 | 3.0 | 7.0 | 0.00 | 0.00 | 0.00 | 90 | 1018.9 |
| 20260902031017 | 61 | 130 | 3.0 | 7.0 | 0.00 | 0.00 | 0.00 | 90 | 1018.9 |
| 20260902030523 | 61 | 128 | 2.0 | 7.0 | 0.00 | 0.00 | 0.00 | 90 | 1018.9 |
| 20260902030026 | 61 | 132 | 3.0 | 7.0 | 0.00 | 0.00 | 0.00 | 90 | 1019.0 |
| 20260902025532 | 61 | 138 | 2.0 | 5.0 | 0.00 | 0.00 | 0.00 | 89 | 1019.0 |
| 20260902025020 | 61 | 134 | 2.0 | 7.0 | 0.00 | 0.00 | 0.00 | 90 | 1019.1 |
| 20260902024525 | 61 | 123 | 3.0 | 7.0 | 0.00 | 0.00 | 0.00 | 90 | 1019.0 |
| 20260902024034 | 61 | 104 | 3.0 | 7.0 | 0.00 | 0.00 | 0.00 | 89 | 1019.1 |
| 20260902023544 | 61 | 117 | 3.0 | 7.0 | 0.00 | 0.00 | 0.00 | 89 | 1019.1 |
| 20260902023031 | 61 | 140 | 3.0 | 7.0 | 0.00 | 0.00 | 0.00 | 89 | 1019.2 |
| 20260902022520 | 61 | 132 | 2.0 | 5.0 | 0.00 | 0.00 | 0.00 | 89 | 1019.3 |
| 20260902022022 | 61 | 138 | 2.0 | 5.0 | 0.00 | 0.00 | 0.00 | 89 | 1019.3 |
| 20260902021533 | 61 | 109 | 2.0 | 5.0 | 0.00 | 0.00 | 0.00 | 89 | 1019.3 |
| 20260902021035 | 61 | 135 | 2.0 | 5.0 | 0.00 | 0.00 | 0.00 | 89 | 1019.3 |
| 20260902020523 | 61 | 142 | 2.0 | 5.0 | 0.00 | 0.00 | 0.00 | 89 | 1019.3 |
| 20260902020024 | 61 | 117 | 2.0 | 5.0 | 0.00 | 0.00 | 0.00 | 89 | 1019.2 |
| 20260902015527 | 61 | 137 | 2.0 | 5.0 | 0.00 | 0.08 | 0.00 | 89 | 1019.2 |
| 20260902015033 | 61 | 184 | 1.0 | 8.0 | 0.00 | 0.08 | 0.00 | 89 | 1019.2 |
| 20260902014522 | 61 | 138 | 3.0 | 8.0 | 0.00 | 0.08 | 0.00 | 88 | 1019.2 |
| 20260902014026 | 61 | 142 | 2.0 | 5.0 | 0.00 | 0.08 | 0.00 | 88 | 1019.2 |
| 20260902013529 | 61 | 169 | 2.0 | 7.0 | 0.00 | 0.08 | 0.00 | 88 | 1019.3 |
| 20260902013034 | 61 | 130 | 3.0 | 7.0 | 0.00 | 0.08 | 0.00 | 88 | 1019.3 |
| 20260902012540 | 61 | 140 | 2.0 | 5.0 | 0.00 | 0.08 | 0.00 | 88 | 1019.3 |
| 20260902012044 | 61 | 114 | 2.0 | 5.0 | 0.00 | 0.08 | 0.00 | 88 | 1019.4 |
| 20260902011553 | 61 | 158 | 2.0 | 4.0 | 0.00 | 0.08 | 0.00 | 88 | 1019.3 |
| 20260902011021 | 61 | 113 | 2.0 | 4.0 | 0.00 | 0.08 | 0.00 | 88 | 1019.4 |
| 20260902010528 | 61 | 113 | 1.0 | 3.0 | 0.00 | 0.08 | 0.00 | 88 | 1019.5 |
| 20260902010026 | 61 | 113 | 1.0 | 3.0 | 0.00 | 0.08 | 0.00 | 88 | 1019.5 |
| 20260902005534 | 61 | 113 | 1.0 | 4.0 | 0.00 | 0.16 | 0.00 | 88 | 1019.5 |
| 20260902005018 | 61 | 113 | 1.0 | 7.0 | 0.00 | 0.16 | 0.00 | 87 | 1019.6 |
| 20260902004528 | 61 | 173 | 3.0 | 7.0 | 0.00 | 0.16 | 0.00 | 87 | 1019.6 |
| 20260902004037 | 61 | 121 | 2.0 | 8.0 | 0.00 | 0.16 | 0.00 | 87 | 1019.5 |
| 20260902003526 | 61 | 142 | 4.0 | 7.0 | 0.00 | 0.16 | 0.00 | 87 | 1019.6 |
| 20260902003025 | 61 | 142 | 2.0 | 4.0 | 0.00 | 0.16 | 0.00 | 87 | 1019.6 |
| 20260902002534 | 61 | 138 | 2.0 | 7.0 | 0.00 | 0.16 | 0.00 | 87 | 1019.5 |
| 20260902002021 | 61 | 136 | 2.0 | 7.0 | 0.00 | 0.16 | 0.00 | 86 | 1019.5 |
| 20260902001555 | 61 | 129 | 2.0 | 4.0 | 0.00 | 0.16 | 0.00 | 86 | 1019.6 |
| 20260902001040 | 61 | 136 | 1.0 | 5.0 | 0.00 | 0.16 | 0.00 | 86 | 1019.6 |
| 20260902000522 | 61 | 157 | 1.0 | 3.0 | 0.00 | 0.16 | 0.00 | 86 | 1019.6 |
| 20260902000022 | 61 | 133 | 1.0 | 3.0 | 0.00 | 0.16 | 0.00 | 86 | 1019.5 |
| 20260901235531 | 61 | 133 | 1.0 | 3.0 | 0.00 | 0.16 | 0.00 | 85 | 1019.6 |